User: anonymous   Login
Location: Unspecified
(0.0000°N, 0.0000°E)
Time: 10:09:14
(UTC+00:00)
Language:

GEOEYE 1 - Orbit

View from above orbital plane
View from above orbital plane
View from above satellite
View from above satellite

Ground track
Ground track

The orbit data is extracted from the following two-line orbital elements,

1 33331U 08042A   16038.79373292  .00000229  00000-0  52356-4 0  9995
2 33331  98.0841 115.0421 0009585  29.6434 330.5300 14.64292245396612
Epoch (UTC): 07 February 2016 19:02:58
Eccentricity: 0.0009585
inclination: 98.0841°
perigee height: 672 km
apogee height: 686 km
right ascension of ascending node: 115.0421°
argument of perigee: 29.6434°
revolutions per day: 14.64292245
mean anomaly at epoch: 330.5300°
orbit number at epoch: 39661

The dashed part of the orbit path shows where the satellite is in the earth's shadow,  

DLR